[[{"header":{"parameterUnit":"m.s-1","parameterCategory":1,"la1":30.2991,"la2":30.254,"lo1":-89.0895,"lo2":-89.0444,"dy":0.0017,"dx":0.0017,"nx":28,"ny":28,"refTime":"2023-11-17T09:00:00:Z","depth":0,"parameterNumber":2,"parameterNumberName":"U-component_of_WINDS"},"data":[0,0,0,0,0,0,0,0,0,0,0,0,0,0,0,0,0,0,0,0,0,0,0,0,0,0,0,0,0,0,0,0,0,0,0,0,0,0,0,0,0,0,0,0,0,0,0,0,0,0,0,0,0,0,0,0,0,0,1.4889,1.4889,0,1.4938,1.4939,1.4939,1.4926,1.4925,1.4925,1.4924,1.4973,1.4975,1.4978,0,0,0,0,0,0,0,0,0,0,0,0,0,1.4783,1.4785,1.4889,1.4889,1.489,1.4938,1.4939,1.4939,1.4927,1.4925,1.4924,1.4923,1.4973,1.4975,1.4978,0,0,0,0,0,0,0,0,0,0,0,0,0,1.483,1.4786,1.4888,1.4889,1.489,1.4938,1.4939,1.4939,1.4927,1.4925,1.4924,1.4923,1.4972,1.4975,1.4978,1.5028,0,0,1.4988,1.499,0,0,0,0,0,0,0,0,1.4828,1.4834,1.4889,1.4889,1.489,1.4925,1.492,1.4969,1.4927,1.4913,1.4924,1.4922,1.4958,1.4963,1.4975,1.503,1.5032,1.4989,1.4991,1.4992,1.4993,0,0,0,0,0,0,0,1.4825,1.4832,1.4908,1.4889,1.489,1.4887,1.4892,1.4929,1.4943,1.4914,1.4913,1.4919,1.4958,1.4972,1.4976,1.5033,1.4989,1.4992,1.4994,1.4995,1.5133,1.5134,0,0,0,0,0,0,1.4821,1.483,1.4907,1.491,1.4855,1.489,1.4896,1.4915,1.4943,1.4945,1.492,1.4918,1.4967,1.4972,1.4978,1.5038,1.4992,1.4995,1.4997,1.5131,1.5133,1.5135,0,0,0,0,0,0,1.4819,1.4828,1.4905,1.4869,1.4879,1.4894,1.4915,1.4917,1.493,1.4948,1.495,1.4932,1.4966,1.4973,1.5016,1.504,1.4997,1.5,1.5129,1.5132,1.5134,1.516,0,0,0,0,0,0,1.4816,1.4827,1.4846,1.487,1.4881,1.4942,1.4917,1.4919,1.4936,1.4934,1.4959,1.4961,1.4965,1.5011,1.5019,1.5044,1.5002,1.5127,1.513,1.5133,1.5157,1.5163,1.5168,0,0,0,0,0,1.4812,1.4851,1.4847,1.4856,1.4905,1.4943,1.495,1.4954,1.4938,1.4957,1.4969,1.4961,1.5036,1.5015,1.5025,1.5051,1.5126,1.5129,1.5133,1.5154,1.5162,1.5168,0,0,0,0,0,0,1.4829,1.4854,1.485,1.4898,1.4919,1.4941,1.4965,1.4961,1.4986,1.4983,1.4987,1.4993,1.5037,1.5048,1.5024,1.5101,1.5079,1.5084,1.5092,1.5099,1.5104,1.5101,1.5005,0,0,0,0,0,1.4838,1.4868,1.4888,1.4928,1.4939,1.4951,1.4967,1.4969,1.499,1.4999,1.5013,1.5034,1.5063,1.5081,1.5109,1.5159,1.5164,1.5181,1.5187,1.5191,1.5196,1.5224,1.5232,1.5147,1.5147,1.5147,0,0,1.4858,1.4875,1.4893,1.4932,1.4948,1.4979,1.4958,1.4991,1.5013,1.5004,1.5045,1.5057,1.508,1.5127,1.5149,1.5138,1.5221,1.5196,1.5199,1.5202,1.5229,1.5237,1.5244,1.515,1.5149,1.5149,0,0,1.4909,1.4925,1.4961,1.4978,1.5003,1.5011,1.5019,1.5043,1.505,1.5092,1.5086,1.5113,1.5162,1.5179,1.5194,1.5254,1.5247,1.5262,1.5291,1.5319,1.5325,1.5331,1.5353,1.5361,1.5267,1.5267,1.5267,0,1.493,1.4976,1.498,1.5013,1.5031,1.5024,1.5061,1.5077,1.511,1.5122,1.511,1.5172,1.5187,1.5238,1.5253,1.5265,1.5276,1.5259,1.5324,1.533,1.5336,1.5357,1.5365,1.5269,1.5269,1.5269,1.5268,0,1.5001,1.5032,1.5058,1.5091,1.5111,1.5146,1.5155,1.5176,1.5176,1.5185,1.5228,1.5246,1.5278,1.529,1.529,1.5342,1.5334,1.5323,1.5301,1.5346,1.5365,1.5373,1.5271,1.5271,1.527,1.527,0,0,1.5063,1.5098,1.5108,1.5123,1.515,1.5175,1.521,1.5241,1.5259,1.5281,1.5311,1.5353,1.5343,1.5361,1.5363,1.5387,1.5433,1.5373,1.5373,1.5384,1.5492,1.5501,1.551,1.5429,1.5431,1.5432,1.549,0,1.5117,1.5179,1.5184,1.524,1.5269,1.5264,1.5295,1.5315,1.5325,1.5351,1.5362,1.5392,1.5376,1.5387,1.5411,1.5423,1.5455,1.5419,1.5457,1.5458,1.5451,1.552,1.5528,1.5583,1.5498,1.5499,1.55,0,1.5188,1.5214,1.5273,1.5297,1.531,1.5337,1.5367,1.5392,1.5415,1.5421,1.5441,1.544,1.5476,1.5453,1.5503,1.5478,1.5494,1.5502,1.5505,1.5508,1.5482,1.5526,1.56,1.5608,1.5512,1.5511,1.551,0,1.5229,1.5278,1.532,1.5333,1.5362,1.5382,1.5395,1.5417,1.5435,1.5461,1.5473,1.5503,1.5519,1.5542,1.5549,1.5531,1.5599,1.5576,1.5605,1.5605,1.5619,1.5618,1.5697,1.5629,1.5629,1.5629,1.5629,0,1.5289,1.5325,1.5339,1.5364,1.5405,1.5411,1.5451,1.5463,1.5483,1.5511,1.5508,1.5534,1.5542,1.557,1.5575,1.5616,1.5624,1.5629,1.563,1.563,1.5629,1.564,1.5637,1.5631,1.5631,1.563,1.563,0,1.5341,1.5351,1.5397,1.5421,1.5428,1.5457,1.5478,1.5503,1.5512,1.5548,1.5557,1.5572,1.5604,1.5614,1.5653,1.5657,1.5705,1.5703,1.5698,1.5698,1.5726,1.5723,1.5815,1.5827,1.5751,1.5752,1.5752,0,1.5378,1.5406,1.5434,1.5453,1.5467,1.5497,1.5516,1.5523,1.5544,1.5573,1.5594,1.5627,1.5653,1.5706,1.572,1.575,1.5749,1.5779,1.5753,1.5752,1.575,1.5748,1.5751,1.5784,1.5784,1.5785,1.5786,0,1.5444,1.5448,1.5476,1.5507,1.553,1.5554,1.5577,1.5592,1.5603,1.5626,1.566,1.568,1.5721,1.5753,1.5784,1.5797,1.5794,1.5794,1.5802,1.5802,1.5798,1.5801,1.5711,1.5791,1.5791,1.579,1.579,1.579,1.549,1.5515,1.5539,1.557,1.5589,1.5611,1.5636,1.5649,1.5677,1.5711,1.5713,1.575,1.5773,1.5814,1.583,1.5858,1.585,1.5861,1.5864,1.5867,1.587,1.5793,1.5864,1.5864,1.5864,1.5864,1.5863,0,1.5556,1.5572,1.5601,1.5633,1.5658,1.5653,1.5679,1.57,1.5732,1.5755,1.5781,1.582,1.5852,1.5869,1.5901,1.5921,1.592,1.5929,1.5927,1.5931,1.5876,1.5866,1.5929,1.5929,1.5929,1.5929,1.5929,1.5929,1.5594,1.5636,1.5643,1.5694,1.5709,1.5745,1.576,1.5781,1.5799,1.5843,1.5869,1.588,1.5901,1.5934,1.5963,1.5967,1.5979,1.599,1.5993,1.5941,1.5934,1.5928,1.5919,1.5992,1.5992,1.6045,1.6046,1.6046]},{"header":{"parameterUnit":"m.s-1","parameterCategory":1,"la1":30.2991,"la2":30.254,"lo1":-89.0895,"lo2":-89.0444,"dy":0.0017,"dx":0.0017,"nx":28,"ny":28,"refTime":"2023-11-17T09:00:00:Z","depth":0,"parameterNumber":3,"parameterNumberName":"V-component_of_WINDS"},"data":[0,0,0,0,0,0,0,0,0,0,0,0,0,0,0,0,0,0,0,0,0,0,0,0,0,0,0,0,0,0,0,0,0,0,0,0,0,0,0,0,0,0,0,0,0,0,0,0,0,0,0,0,0,0,0,0,0,0,-3.6228,-3.6228,0,-3.6296,-3.6296,-3.6297,-3.6302,-3.6302,-3.6301,-3.63,-3.6368,-3.637,-3.6373,0,0,0,0,0,0,0,0,0,0,0,0,0,-3.6101,-3.6103,-3.6227,-3.6228,-3.6229,-3.6295,-3.6296,-3.6297,-3.6302,-3.6302,-3.6301,-3.63,-3.6367,-3.637,-3.6373,0,0,0,0,0,0,0,0,0,0,0,0,0,-3.6161,-3.6104,-3.6227,-3.624,-3.6242,-3.6295,-3.6296,-3.6298,-3.6303,-3.6302,-3.63,-3.6299,-3.6366,-3.637,-3.6374,-3.6419,0,0,-3.6385,-3.6387,0,0,0,0,0,0,0,0,-3.6157,-3.6166,-3.6237,-3.6239,-3.6241,-3.6289,-3.6277,-3.6338,-3.6303,-3.6279,-3.63,-3.6299,-3.6343,-3.6348,-3.6363,-3.6422,-3.6425,-3.6385,-3.6388,-3.6389,-3.639,0,0,0,0,0,0,0,-3.6153,-3.6163,-3.6254,-3.6238,-3.6241,-3.6242,-3.6249,-3.6288,-3.6316,-3.6281,-3.6282,-3.629,-3.6343,-3.636,-3.6365,-3.6426,-3.6385,-3.6389,-3.6391,-3.6392,-3.6526,-3.6528,0,0,0,0,0,0,-3.6147,-3.6159,-3.6252,-3.6256,-3.6196,-3.6245,-3.6253,-3.6275,-3.6316,-3.6321,-3.6291,-3.629,-3.6354,-3.6361,-3.6367,-3.6424,-3.6389,-3.6393,-3.6395,-3.6525,-3.6527,-3.6528,0,0,0,0,0,0,-3.6144,-3.6155,-3.6249,-3.6208,-3.622,-3.6248,-3.6273,-3.6277,-3.6293,-3.6323,-3.6328,-3.6302,-3.6353,-3.6362,-3.6406,-3.6426,-3.6394,-3.6398,-3.6523,-3.6525,-3.6527,-3.6537,0,0,0,0,0,0,-3.6141,-3.6154,-3.6172,-3.6208,-3.6222,-3.6288,-3.6274,-3.6279,-3.63,-3.6299,-3.6335,-3.634,-3.6353,-3.6401,-3.641,-3.6431,-3.6401,-3.6522,-3.6524,-3.6527,-3.6535,-3.6539,-3.6542,0,0,0,0,0,-3.6136,-3.6171,-3.6173,-3.6184,-3.6245,-3.6289,-3.6297,-3.6311,-3.6301,-3.6319,-3.6339,-3.6339,-3.6423,-3.6405,-3.6416,-3.6438,-3.6521,-3.6524,-3.6526,-3.6533,-3.6538,-3.6542,0,0,0,0,0,0,-3.6135,-3.6176,-3.6178,-3.6226,-3.6254,-3.629,-3.6313,-3.6316,-3.6346,-3.6345,-3.6361,-3.6369,-3.6413,-3.643,-3.641,-3.6484,-3.647,-3.6476,-3.6472,-3.6477,-3.648,-3.6475,-3.6404,0,0,0,0,0,-3.6141,-3.6174,-3.6207,-3.6246,-3.626,-3.6284,-3.6304,-3.6313,-3.6342,-3.6353,-3.6376,-3.6404,-3.6436,-3.6457,-3.6489,-3.6537,-3.6545,-3.6558,-3.6561,-3.6564,-3.6568,-3.6596,-3.6602,-3.6538,-3.6538,-3.6538,0,0,-3.6152,-3.6179,-3.6198,-3.6247,-3.627,-3.6303,-3.6294,-3.6329,-3.6354,-3.6358,-3.6402,-3.642,-3.6452,-3.6498,-3.652,-3.6514,-3.6588,-3.6568,-3.657,-3.6573,-3.6599,-3.6606,-3.6611,-3.654,-3.6539,-3.6539,0,0,-3.6191,-3.6214,-3.6249,-3.6273,-3.6307,-3.6323,-3.6332,-3.6367,-3.6379,-3.6423,-3.6428,-3.6457,-3.6513,-3.6536,-3.6555,-3.6603,-3.6604,-3.6613,-3.6632,-3.6658,-3.6664,-3.6668,-3.6686,-3.6692,-3.6617,-3.6617,-3.6617,0,-3.62,-3.6251,-3.6267,-3.6303,-3.6324,-3.6331,-3.6367,-3.6389,-3.6431,-3.6446,-3.6439,-3.6509,-3.6531,-3.6584,-3.6596,-3.6611,-3.6621,-3.6609,-3.6662,-3.6666,-3.6671,-3.6688,-3.6694,-3.6618,-3.6618,-3.6618,-3.6618,0,-3.6261,-3.6297,-3.6321,-3.6363,-3.6388,-3.6423,-3.6444,-3.6467,-3.6474,-3.6491,-3.6536,-3.6563,-3.66,-3.6614,-3.6621,-3.6667,-3.6663,-3.6658,-3.6645,-3.6678,-3.6694,-3.67,-3.6619,-3.6619,-3.6618,-3.6618,0,0,-3.63,-3.6352,-3.6361,-3.638,-3.642,-3.6447,-3.6483,-3.6521,-3.654,-3.6569,-3.66,-3.6648,-3.6644,-3.6666,-3.6676,-3.6699,-3.6736,-3.6692,-3.6693,-3.6699,-3.679,-3.6793,-3.68,-3.6738,-3.6739,-3.674,-3.6787,0,-3.6343,-3.6408,-3.6424,-3.6479,-3.6512,-3.652,-3.6551,-3.6579,-3.6595,-3.6625,-3.6643,-3.6677,-3.667,-3.6683,-3.6707,-3.6727,-3.6754,-3.6723,-3.6766,-3.6767,-3.6758,-3.6808,-3.6812,-3.6855,-3.6794,-3.6795,-3.6795,0,-3.6401,-3.6433,-3.6492,-3.6528,-3.6542,-3.6571,-3.6607,-3.6635,-3.6667,-3.6677,-3.6702,-3.671,-3.6748,-3.6732,-3.6785,-3.6764,-3.6782,-3.6795,-3.6797,-3.6801,-3.6783,-3.6814,-3.6869,-3.6876,-3.6805,-3.6805,-3.6804,0,-3.6424,-3.6482,-3.6525,-3.6541,-3.6584,-3.6604,-3.6622,-3.6653,-3.6675,-3.6706,-3.6721,-3.6756,-3.6775,-3.6802,-3.682,-3.6807,-3.6871,-3.6857,-3.6881,-3.688,-3.6893,-3.6892,-3.6952,-3.6905,-3.6905,-3.6905,-3.6905,0,-3.647,-3.6506,-3.6536,-3.6562,-3.6603,-3.6621,-3.666,-3.6679,-3.6706,-3.6736,-3.6745,-3.6773,-3.6794,-3.6825,-3.6838,-3.688,-3.6888,-3.6898,-3.6901,-3.6897,-3.6896,-3.6909,-3.6907,-3.6907,-3.6907,-3.6906,-3.6906,0,-3.6502,-3.6524,-3.6571,-3.6608,-3.6618,-3.6647,-3.6678,-3.6704,-3.6722,-3.676,-3.677,-3.6796,-3.6833,-3.6853,-3.6899,-3.6909,-3.6955,-3.6957,-3.6945,-3.6946,-3.6969,-3.6967,-3.7039,-3.705,-3.6996,-3.6997,-3.6997,0,-3.653,-3.6558,-3.6599,-3.662,-3.6639,-3.6673,-3.6696,-3.6715,-3.6738,-3.6776,-3.6798,-3.6835,-3.6866,-3.6925,-3.6949,-3.6984,-3.6987,-3.701,-3.6992,-3.6987,-3.6987,-3.6985,-3.6989,-3.7013,-3.7013,-3.7014,-3.7014,0,-3.6577,-3.6587,-3.662,-3.6657,-3.6684,-3.6713,-3.6743,-3.676,-3.6783,-3.6809,-3.6847,-3.6872,-3.6919,-3.6957,-3.6994,-3.7013,-3.7018,-3.7019,-3.7027,-3.7023,-3.7015,-3.702,-3.6954,-3.7018,-3.7017,-3.7017,-3.7017,-3.7017,-3.6609,-3.6634,-3.6667,-3.6703,-3.6728,-3.6755,-3.6782,-3.6803,-3.6835,-3.6876,-3.6885,-3.6926,-3.6957,-3.7008,-3.7028,-3.706,-3.7056,-3.7066,-3.7069,-3.7071,-3.7073,-3.701,-3.7067,-3.7067,-3.7067,-3.7067,-3.7067,0,-3.6657,-3.6679,-3.6712,-3.6753,-3.6782,-3.6785,-3.6817,-3.6841,-3.6877,-3.6906,-3.6937,-3.6981,-3.7018,-3.7045,-3.7082,-3.7103,-3.7106,-3.7112,-3.711,-3.7115,-3.7074,-3.7064,-3.7109,-3.7109,-3.7109,-3.7109,-3.7109,-3.7109,-3.6685,-3.6729,-3.6742,-3.6798,-3.682,-3.686,-3.6879,-3.6904,-3.6928,-3.6977,-3.7008,-3.7025,-3.7054,-3.7093,-3.7127,-3.7134,-3.7147,-3.7153,-3.716,-3.7122,-3.7118,-3.7113,-3.7104,-3.7156,-3.7156,-3.7198,-3.7199,-3.7199]}]]